VE7ALB-8 Weather Reports


Display with metric or nautical units.
time (UTC)temp
F
wind
direction
speed
MPH
gust
MPH
rain 1hr
in
rain 24hr
in
rain mn
in
humidity
%
barometer
mb
20260503004017 0 0.0 0.0 0.00 0.00 0.00 923.3
20260503003020 0 0.0 0.0 0.00 0.00 0.00 923.6
20260503002022 68 265 7.0 9.0 0.00 0.00 0.00 31 923.6
20260503001044 68 271 7.0 10.0 0.00 0.00 0.00 31 923.6
20260503000046 68 280 7.0 10.0 0.00 0.00 0.00 30 923.7
20260502235023 67 277 9.0 11.0 0.00 0.00 0.00 32 923.9
20260502234101 66 260 8.0 9.0 0.00 0.00 0.00 32 924.1
20260502233038 67 272 9.0 11.0 0.00 0.00 0.00 32 924.3
20260502232044 67 291 8.0 11.0 0.00 0.00 0.00 31 924.3
20260502231026 67 295 9.0 11.0 0.00 0.00 0.00 31 924.6
20260502230030 68 270 7.0 9.0 0.00 0.00 0.00 31 924.6
20260502225031 69 281 6.0 9.0 0.00 0.00 0.00 29 924.7
20260502224015 68 300 9.0 14.0 0.00 0.00 0.00 28 925.0
20260502223051 69 298 7.0 12.0 0.00 0.00 0.00 28 925.1
20260502222033 68 300 6.0 9.0 0.00 0.00 0.00 29 925.3
20260502221017 68 277 9.0 12.0 0.00 0.00 0.00 30 925.3
20260502220019 69 272 7.0 9.0 0.00 0.00 0.00 29 925.5
20260502215023 69 295 7.0 10.0 0.00 0.00 0.00 29 925.6
20260502214039 68 304 10.0 17.0 0.00 0.00 0.00 29 925.6
20260502213021 68 315 8.0 15.0 0.00 0.00 0.00 30 925.8
20260502212024 69 293 10.0 15.0 0.00 0.00 0.00 29 925.8
20260502211026 68 309 8.0 11.0 0.00 0.00 0.00 30 926.0
20260502210046 68 292 7.0 11.0 0.00 0.00 0.00 28 926.1
20260502205019 68 314 8.0 12.0 0.00 0.00 0.00 29 926.2
20260502204016 68 295 9.0 11.0 0.00 0.00 0.00 28 926.3
20260502203020 68 310 9.0 13.0 0.00 0.00 0.00 29 926.5
20260502202020 68 317 11.0 16.0 0.00 0.00 0.00 28 926.5
20260502201018 67 313 8.0 14.0 0.00 0.00 0.00 28 926.6
20260502200020 67 288 8.0 12.0 0.00 0.00 0.00 29 926.8
20260502195022 67 287 7.0 11.0 0.00 0.00 0.00 29 926.9
20260502194024 66 327 10.0 15.0 0.00 0.00 0.00 29 927.0
20260502193027 67 287 8.0 11.0 0.00 0.00 0.00 31 927.1
20260502192029 66 312 8.0 11.0 0.00 0.00 0.00 31 927.3
20260502191032 65 296 5.0 10.0 0.00 0.00 0.00 31 927.5
20260502190015 66 306 9.0 11.0 0.00 0.00 0.00 31 927.6
20260502185017 65 321 9.0 11.0 0.00 0.00 0.00 32 927.6
20260502184021 66 321 10.0 14.0 0.00 0.00 0.00 31 927.6
20260502183022 65 320 6.0 8.0 0.00 0.00 0.00 32 927.8
20260502182044 65 310 6.0 8.0 0.00 0.00 0.00 31 928.0
20260502181020 64 324 8.0 12.0 0.00 0.00 0.00 31 928.1
20260502164020 61 329 6.0 8.0 0.00 0.00 0.00 38 928.6
20260502163022 61 306 8.0 10.0 0.00 0.00 0.00 38 928.8
20260502162024 60 340 6.0 7.0 0.00 0.00 0.00 40 928.8
20260502161026 60 337 5.0 9.0 0.00 0.00 0.00 41 928.8
20260502152018 55 309 7.0 9.0 0.00 0.00 0.00 51 929.1
20260502151021 55 322 6.0 8.0 0.00 0.00 0.00 52 929.1
20260502123037 42 299 5.0 7.0 0.00 0.00 0.00 81 928.3
20260502122051 42 300 5.0 8.0 0.00 0.00 0.00 82 928.3
20260502121037 41 310 7.0 10.0 0.00 0.00 0.00 83 928.3
20260502115027 41 318 6.0 7.0 0.00 0.00 0.00 84 928.2
20260502114024 41 315 6.0 7.0 0.00 0.00 0.00 83 928.3
20260502113026 42 311 7.0 9.0 0.00 0.00 0.00 83 928.3
20260502112109 42 304 7.0 9.0 0.00 0.00 0.00 83 928.3
20260502111031 42 315 8.0 10.0 0.00 0.00 0.00 83 928.3
20260502110028 42 315 6.0 7.0 0.00 0.00 0.00 83 928.1
20260502105030 42 317 6.0 7.0 0.00 0.00 0.00 83 928.1
20260502104052 42 310 5.0 7.0 0.00 0.00 0.00 83 928.1
20260502103017 42 312 5.0 6.0 0.00 0.00 0.00 83 928.1
20260502102039 42 299 5.0 7.0 0.00 0.00 0.00 83 928.0
20260502101021 43 307 6.0 8.0 0.00 0.00 0.00 82 927.8
20260502091030 44 307 7.0 8.0 0.00 0.00 0.00 81 927.3
20260502071041 50 307 6.0 8.0 0.00 0.00 0.00 72 926.8
20260502070019 50 315 6.0 8.0 0.00 0.00 0.00 70 926.7
20260502065032 51 312 6.0 9.0 0.00 0.00 0.00 68 926.6
20260502064017 52 323 6.0 7.0 0.00 0.00 0.00 65 926.6
20260502063032 53 319 6.0 8.0 0.00 0.00 0.00 64 926.5
20260502062015 53 320 6.0 8.0 0.00 0.00 0.00 63 926.5
20260502061031 53 315 5.0 7.0 0.00 0.00 0.00 62 926.6
20260502060054 53 306 5.0 6.0 0.00 0.00 0.00 62 926.6
20260502055017 54 313 6.0 7.0 0.00 0.00 0.00 61 926.6
20260502054020 54 305 7.0 8.0 0.00 0.00 0.00 60 926.6
20260502053016 54 317 7.0 9.0 0.00 0.00 0.00 60 926.1
20260502052038 54 326 5.0 7.0 0.00 0.00 0.00 60 926.1
20260502051101 53 309 6.0 7.0 0.00 0.00 0.00 61 926.3
20260502050019 53 312 4.0 5.0 0.00 0.00 0.00 61 926.3
20260502045020 54 319 6.0 8.0 0.00 0.00 0.00 60 926.3
20260502044022 54 315 6.0 7.0 0.00 0.00 0.00 60 926.3
20260502043025 54 320 5.0 8.0 0.00 0.00 0.00 59 926.1
20260502042021 55 318 6.0 8.0 0.00 0.00 0.00 59 926.0
20260502041018 55 305 6.0 7.0 0.00 0.00 0.00 59 926.0
20260502040027 55 315 5.0 6.0 0.00 0.00 0.00 59 925.9
20260502035023 55 313 4.0 5.0 0.00 0.00 0.00 59 925.8
20260502034020 55 312 4.0 6.0 0.00 0.00 0.00 59 925.8
20260502033022 56 313 4.0 5.0 0.00 0.00 0.00 58 925.8
20260502032033 57 311 4.0 6.0 0.00 0.00 0.00 56 925.6
20260502031016 58 328 4.0 6.0 0.00 0.00 0.00 54 925.6
20260502030018 58 308 6.0 10.0 0.00 0.00 0.00 52 925.5
20260502025021 59 356 5.0 10.0 0.00 0.00 0.00 51 925.4
20260502024023 59 346 4.0 6.0 0.00 0.00 0.00 49 925.3
20260502023026 60 359 5.0 9.0 0.00 0.00 0.00 49 925.0
20260502022028 60 352 7.0 10.0 0.00 0.00 0.00 49 924.8
20260502021051 60 333 6.0 8.0 0.00 0.00 0.00 49 924.8
20260502020032 61 346 6.0 8.0 0.00 0.00 0.00 47 924.8
20260502015017 62 355 6.0 8.0 0.00 0.00 0.00 46 924.7
20260502014019 62 339 6.0 8.0 0.00 0.00 0.00 45 924.6
20260502013020 63 343 6.0 8.0 0.00 0.00 0.00 44 924.6
20260502012038 63 344 6.0 8.0 0.00 0.00 0.00 43 924.6
20260502011020 64 345 8.0 11.0 0.00 0.00 0.00 43 924.3
20260502010017 64 347 7.0 8.0 0.00 0.00 0.00 42 924.2
20260502005032 65 348 6.0 7.0 0.00 0.00 0.00 42 924.2